Station Historical Data
Daily Summary for August 31, 2017 Units:  English    Metric   Both
« Previous Day
Next Day »
Daily Weekly Monthly Yearly Custom
  High: Low: Average:
Temperature: 69.1 °F 52.6 °F 63.2 °F
Dew Point: 63.5 °F 43.8 °F 54 °F
Humidity: 90% 50% 73%
Wind Speed: 8.0mph 0.0mph 2.4mph
Wind Gust: 15.0mph - -
Wind- - WSW
Pressure: 30.17 in 29.93 in -
Precipitation: 0.00 in    
Historical Graphs
 
 
Tabular Data for August 31, 2017
Time Temperature Dew Point Pressure Wind Wind Speed Wind Gust Humidity Rainfall Rate (Hourly)
00:04 69.0 °F 63.3 °F 29.93 in West 2.0 mph 5.0 mph 82% 0.00 in
00:09 68.9 °F 63.5 °F 29.93 in West 2.0 mph 6.0 mph 83% 0.00 in
00:14 68.8 °F 63.4 °F 29.93 in West 3.0 mph 6.0 mph 83% 0.00 in
00:19 68.8 °F 63.1 °F 29.93 in WSW 3.0 mph 6.0 mph 82% 0.00 in
00:24 68.6 °F 62.9 °F 29.94 in West 3.0 mph 6.0 mph 82% 0.00 in
00:29 68.4 °F 62.7 °F 29.94 in WNW 2.0 mph 7.0 mph 82% 0.00 in
00:34 68.2 °F 62.8 °F 29.93 in West 2.0 mph 7.0 mph 83% 0.00 in
00:39 68.0 °F 62.6 °F 29.93 in West 1.0 mph 8.0 mph 83% 0.00 in
00:44 67.9 °F 62.5 °F 29.94 in WNW 8.0 mph 8.0 mph 83% 0.00 in
00:49 67.7 °F 62.0 °F 29.93 in West 3.0 mph 8.0 mph 82% 0.00 in
00:54 67.6 °F 61.9 °F 29.93 in West 4.0 mph 7.0 mph 82% 0.00 in
00:59 67.4 °F 61.7 °F 29.93 in West 1.0 mph 6.0 mph 82% 0.00 in
01:04 67.4 °F 61.7 °F 29.93 in West 3.0 mph 7.0 mph 82% 0.00 in
01:09 67.2 °F 61.2 °F 29.93 in West 2.0 mph 7.0 mph 81% 0.00 in
01:14 67.1 °F 61.1 °F 29.93 in West 1.0 mph 5.0 mph 81% 0.00 in
01:19 67.0 °F 61.0 °F 29.93 in West 1.0 mph 5.0 mph 81% 0.00 in
01:24 66.7 °F 61.0 °F 29.93 in Calm   6.0 mph 82% 0.00 in
01:29 66.6 °F 60.9 °F 29.93 in Calm     82% 0.00 in
01:34 66.3 °F 60.6 °F 29.93 in Calm   4.0 mph 82% 0.00 in
01:39 66.2 °F 60.5 °F 29.93 in West 2.0 mph 6.0 mph 82% 0.00 in
01:44 66.0 °F 60.3 °F 29.93 in West 1.0 mph 6.0 mph 82% 0.00 in
01:49 65.8 °F 60.2 °F 29.93 in West 1.0 mph 5.0 mph 82% 0.00 in
01:54 65.7 °F 60.1 °F 29.93 in West 2.0 mph 5.0 mph 82% 0.00 in
01:59 65.7 °F 60.1 °F 29.93 in West 1.0 mph 5.0 mph 82% 0.00 in
02:04 65.6 °F 60.0 °F 29.93 in Calm   7.0 mph 82% 0.00 in
02:09 65.4 °F 59.8 °F 29.93 in West 2.0 mph 7.0 mph 82% 0.00 in
02:14 65.4 °F 60.1 °F 29.93 in Calm   6.0 mph 83% 0.00 in
02:19 65.2 °F 59.9 °F 29.93 in WNW 3.0 mph 5.0 mph 83% 0.00 in
02:24 65.1 °F 59.8 °F 29.93 in Calm   5.0 mph 83% 0.00 in
02:29 64.9 °F 59.6 °F 29.94 in WNW 1.0 mph 5.0 mph 83% 0.00 in
02:34 64.7 °F 59.4 °F 29.94 in Calm   6.0 mph 83% 0.00 in
02:39 64.7 °F 59.8 °F 29.94 in West 1.0 mph 6.0 mph 84% 0.00 in
02:44 64.5 °F 59.6 °F 29.94 in West 2.0 mph 6.0 mph 84% 0.00 in
02:49 64.5 °F 59.6 °F 29.94 in West 2.0 mph 6.0 mph 84% 0.00 in
02:54 64.4 °F 59.5 °F 29.93 in West 1.0 mph 6.0 mph 84% 0.00 in
02:59 64.2 °F 59.3 °F 29.93 in West 1.0 mph 4.0 mph 84% 0.00 in
03:04 64.0 °F 59.4 °F 29.93 in Calm   4.0 mph 85% 0.00 in
03:09 63.9 °F 59.3 °F 29.93 in Calm   1.0 mph 85% 0.00 in
03:14 63.6 °F 59.0 °F 29.93 in Calm   2.0 mph 85% 0.00 in
03:19 63.4 °F 59.1 °F 29.93 in Calm   2.0 mph 86% 0.00 in
03:24 63.2 °F 58.9 °F 29.93 in Calm     86% 0.00 in
03:29 63.2 °F 59.3 °F 29.93 in Calm   2.0 mph 87% 0.00 in
03:34 63.1 °F 59.2 °F 29.93 in Calm     87% 0.00 in
03:39 63.0 °F 59.1 °F 29.94 in Calm   3.0 mph 87% 0.00 in
03:44 62.9 °F 59.0 °F 29.93 in Calm   2.0 mph 87% 0.00 in
03:49 62.9 °F 59.3 °F 29.94 in Calm   4.0 mph 88% 0.00 in
03:54 63.1 °F 59.5 °F 29.94 in NW 1.0 mph 5.0 mph 88% 0.00 in
03:59 63.2 °F 59.6 °F 29.94 in NW 1.0 mph 5.0 mph 88% 0.00 in
04:04 63.4 °F 59.8 °F 29.94 in NW 1.0 mph 4.0 mph 88% 0.00 in
04:09 63.5 °F 59.9 °F 29.94 in Calm   3.0 mph 88% 0.00 in
04:14 63.6 °F 59.7 °F 29.94 in NW 2.0 mph 4.0 mph 87% 0.00 in
04:19 63.7 °F 59.8 °F 29.94 in WNW 4.0 mph 7.0 mph 87% 0.00 in
04:24 63.8 °F 59.9 °F 29.94 in NW 2.0 mph 7.0 mph 87% 0.00 in
04:29 63.9 °F 59.6 °F 29.93 in NW 2.0 mph 6.0 mph 86% 0.00 in
04:34 63.9 °F 59.6 °F 29.94 in Calm   6.0 mph 86% 0.00 in
04:39 64.0 °F 59.7 °F 29.94 in WNW 2.0 mph 4.0 mph 86% 0.00 in
04:44 64.0 °F 59.7 °F 29.94 in WNW 2.0 mph 3.0 mph 86% 0.00 in
04:49 64.0 °F 59.7 °F 29.94 in NNW 1.0 mph 4.0 mph 86% 0.00 in
04:54 64.1 °F 59.8 °F 29.94 in NW 1.0 mph 5.0 mph 86% 0.00 in
04:59 64.2 °F 59.9 °F 29.94 in NW 2.0 mph 7.0 mph 86% 0.00 in
05:04 64.3 °F 60.0 °F 29.94 in NW 3.0 mph 8.0 mph 86% 0.00 in
05:09 64.3 °F 60.0 °F 29.94 in WNW 1.0 mph 5.0 mph 86% 0.00 in
05:14 64.3 °F 60.0 °F 29.94 in NNW 4.0 mph 7.0 mph 86% 0.00 in
05:19 64.3 °F 60.3 °F 29.94 in Calm   6.0 mph 87% 0.00 in
05:24 64.1 °F 60.2 °F 29.94 in NNW 2.0 mph 6.0 mph 87% 0.00 in
05:29 63.9 °F 60.0 °F 29.94 in NNW 1.0 mph 6.0 mph 87% 0.00 in
05:34 63.8 °F 59.9 °F 29.94 in NNW 1.0 mph 6.0 mph 87% 0.00 in
05:39 63.6 °F 60.0 °F 29.94 in NNW 2.0 mph 6.0 mph 88% 0.00 in
05:44 63.4 °F 59.8 °F 29.95 in NNW 3.0 mph 5.0 mph 88% 0.01 in
05:49 63.4 °F 59.8 °F 29.95 in Calm   4.0 mph 88% 0.01 in
05:54 63.3 °F 60.0 °F 29.95 in NNW 1.0 mph 4.0 mph 89% 0.01 in
05:59 63.2 °F 59.9 °F 29.95 in NNW 1.0 mph 5.0 mph 89% 0.01 in
06:04 63.2 °F 59.9 °F 29.95 in NW 3.0 mph 5.0 mph 89% 0.02 in
06:09 63.2 °F 60.2 °F 29.95 in Calm   5.0 mph 90% 0.02 in
06:14 63.2 °F 60.2 °F 29.95 in Calm     90% 0.02 in
06:19 63.2 °F 60.2 °F 29.95 in Calm   3.0 mph 90% 0.02 in
06:24 63.2 °F 60.2 °F 29.96 in NNW 1.0 mph 4.0 mph 90% 0.02 in
06:29 63.0 °F 60.0 °F 29.97 in NNW 2.0 mph 10.0 mph 90% 0.02 in
06:34 62.7 °F 59.4 °F 29.97 in North 3.0 mph 10.0 mph 89% 0.02 in
06:39 62.4 °F 59.4 °F 29.98 in North 3.0 mph 9.0 mph 90% 0.02 in
06:44 62.1 °F 59.1 °F 29.98 in North 2.0 mph 8.0 mph 90% 0.01 in
06:49 61.9 °F 58.9 °F 29.98 in NNW 2.0 mph 7.0 mph 90% 0.01 in
06:54 61.9 °F 58.9 °F 29.98 in NNW 2.0 mph 7.0 mph 90% 0.01 in
06:59 61.8 °F 58.8 °F 29.98 in NNW 2.0 mph 4.0 mph 90% 0.01 in
07:04 61.7 °F 58.7 °F 29.99 in NNW 1.0 mph 7.0 mph 90% 0.00 in
07:09 61.7 °F 58.7 °F 29.99 in NE 5.0 mph 5.0 mph 90% 0.00 in
07:14 61.7 °F 58.7 °F 29.99 in NNE 2.0 mph 6.0 mph 90% 0.00 in
07:19 61.6 °F 58.6 °F 29.99 in NNE 2.0 mph 3.0 mph 90% 0.00 in
07:24 61.3 °F 58.0 °F 29.99 in NNE 5.0 mph 7.0 mph 89% 0.00 in
07:29 60.7 °F 57.4 °F 30.00 in NNE 2.0 mph 7.0 mph 89% 0.00 in
07:34 60.6 °F 57.3 °F 30.00 in NNE 2.0 mph 6.0 mph 89% 0.00 in
07:39 60.5 °F 56.9 °F 30.00 in NNE 2.0 mph 8.0 mph 88% 0.00 in
07:44 60.6 °F 56.7 °F 30.00 in NNE 2.0 mph 8.0 mph 87% 0.00 in
07:49 60.8 °F 56.6 °F 30.01 in NNE 2.0 mph 5.0 mph 86% 0.00 in
07:54 60.8 °F 56.6 °F 30.01 in North 2.0 mph 6.0 mph 86% 0.00 in
07:59 61.1 °F 56.9 °F 30.01 in NNE 2.0 mph 4.0 mph 86% 0.00 in
08:04 61.0 °F 56.8 °F 30.01 in NNE 2.0 mph 5.0 mph 86% 0.00 in
08:09 61.1 °F 56.9 °F 30.01 in NE 4.0 mph 6.0 mph 86% 0.00 in
08:14 61.2 °F 57.0 °F 30.01 in NE 1.0 mph 7.0 mph 86% 0.00 in
08:19 61.3 °F 56.8 °F 30.02 in North 2.0 mph 4.0 mph 85% 0.00 in
08:24 61.3 °F 56.8 °F 30.02 in North 1.0 mph 3.0 mph 85% 0.00 in
08:29 61.2 °F 56.7 °F 30.02 in North 1.0 mph 3.0 mph 85% 0.00 in
08:34 61.3 °F 56.8 °F 30.02 in North 2.0 mph 8.0 mph 85% 0.00 in
08:39 62.1 °F 57.9 °F 30.02 in North 2.0 mph 8.0 mph 86% 0.00 in
08:44 62.3 °F 57.4 °F 30.03 in NNE 2.0 mph 7.0 mph 84% 0.00 in
08:49 62.4 °F 57.5 °F 30.03 in NNE 2.0 mph 7.0 mph 84% 0.00 in
08:54 62.5 °F 57.3 °F 30.03 in NNE 2.0 mph 8.0 mph 83% 0.00 in
08:59 62.7 °F 57.5 °F 30.04 in NNW 3.0 mph 12.0 mph 83% 0.00 in
09:04 62.7 °F 56.8 °F 30.04 in NNW 3.0 mph 12.0 mph 81% 0.00 in
09:09 62.7 °F 57.1 °F 30.04 in NNW 3.0 mph 8.0 mph 82% 0.00 in
09:14 63.6 °F 58.0 °F 30.04 in North 2.0 mph 7.0 mph 82% 0.00 in
09:19 64.4 °F 58.1 °F 30.04 in NNW 1.0 mph 5.0 mph 80% 0.00 in
09:24 64.7 °F 57.7 °F 30.04 in NNW 2.0 mph 9.0 mph 78% 0.00 in
09:29 64.8 °F 57.1 °F 30.04 in NE 5.0 mph 9.0 mph 76% 0.00 in
09:34 64.4 °F 56.7 °F 30.05 in NNE 3.0 mph 10.0 mph 76% 0.00 in
09:39 64.3 °F 56.2 °F 30.05 in ENE 3.0 mph 7.0 mph 75% 0.00 in
09:44 64.6 °F 56.9 °F 30.05 in NE 4.0 mph 6.0 mph 76% 0.00 in
09:49 64.1 °F 56.0 °F 30.05 in NNE 2.0 mph 8.0 mph 75% 0.00 in
09:54 63.5 °F 55.8 °F 30.05 in Calm   4.0 mph 76% 0.00 in
09:59 63.6 °F 56.3 °F 30.05 in Calm   4.0 mph 77% 0.00 in
10:04 63.8 °F 56.1 °F 30.06 in NNE 1.0 mph 4.0 mph 76% 0.00 in
10:09 63.6 °F 55.9 °F 30.06 in NE 2.0 mph 10.0 mph 76% 0.00 in
10:14 63.7 °F 56.4 °F 30.06 in NE 3.0 mph 10.0 mph 77% 0.00 in
10:19 64.2 °F 57.2 °F 30.06 in NE 2.0 mph 8.0 mph 78% 0.00 in
10:24 63.9 °F 56.2 °F 30.06 in NNW 1.0 mph 4.0 mph 76% 0.00 in
10:29 63.5 °F 56.2 °F 30.06 in North 2.0 mph 4.0 mph 77% 0.00 in
10:34 63.2 °F 56.2 °F 30.06 in Calm   5.0 mph 78% 0.00 in
10:39 63.0 °F 56.0 °F 30.06 in NNE 2.0 mph 5.0 mph 78% 0.00 in
10:44 63.1 °F 56.1 °F 30.06 in North 2.0 mph 8.0 mph 78% 0.00 in
10:49 63.5 °F 55.8 °F 30.06 in NE 2.0 mph 6.0 mph 76% 0.00 in
10:54 63.4 °F 56.1 °F 30.06 in NNE 3.0 mph 5.0 mph 77% 0.00 in
10:59 63.5 °F 56.2 °F 30.06 in North 4.0 mph 7.0 mph 77% 0.00 in
11:04 63.6 °F 55.5 °F 30.06 in NNE 2.0 mph 6.0 mph 75% 0.00 in
11:09 63.6 °F 55.9 °F 30.06 in NNE 3.0 mph 8.0 mph 76% 0.00 in
11:14 63.7 °F 56.0 °F 30.06 in NE 3.0 mph 8.0 mph 76% 0.00 in
11:19 64.1 °F 56.0 °F 30.06 in NNE 3.0 mph 8.0 mph 75% 0.00 in
11:24 64.0 °F 55.9 °F 30.06 in North 2.0 mph 6.0 mph 75% 0.00 in
11:29 64.1 °F 56.0 °F 30.07 in North 4.0 mph 8.0 mph 75% 0.00 in
11:34 64.5 °F 56.4 °F 30.06 in NNE 1.0 mph 8.0 mph 75% 0.00 in
11:39 64.5 °F 55.7 °F 30.07 in NE 3.0 mph 8.0 mph 73% 0.00 in
11:44 64.7 °F 55.8 °F 30.06 in NNE 2.0 mph 6.0 mph 73% 0.00 in
11:49 64.8 °F 54.8 °F 30.06 in NNE 1.0 mph 7.0 mph 70% 0.00 in
11:54 65.0 °F 55.0 °F 30.06 in NNW 1.0 mph 8.0 mph 70% 0.00 in
11:59 65.5 °F 55.8 °F 30.07 in Calm   8.0 mph 71% 0.00 in
12:04 65.2 °F 54.8 °F 30.06 in NE 2.0 mph 8.0 mph 69% 0.00 in
12:09 64.8 °F 55.2 °F 30.07 in North 5.0 mph 9.0 mph 71% 0.00 in
12:14 65.1 °F 55.8 °F 30.06 in NNW 4.0 mph 9.0 mph 72% 0.00 in
12:19 65.2 °F 55.2 °F 30.07 in North 3.0 mph 7.0 mph 70% 0.00 in
12:24 65.6 °F 55.2 °F 30.07 in North 3.0 mph 7.0 mph 69% 0.01 in
12:29 67.0 °F 56.9 °F 30.06 in North 4.0 mph 9.0 mph 70% 0.01 in
12:34 66.6 °F 55.3 °F 30.06 in North 4.0 mph 9.0 mph 67% 0.01 in
12:39 65.5 °F 55.1 °F 30.06 in North 2.0 mph 8.0 mph 69% 0.01 in
12:44 66.0 °F 55.1 °F 30.06 in North 3.0 mph 10.0 mph 68% 0.01 in
12:49 67.0 °F 56.5 °F 30.06 in North 2.0 mph 7.0 mph 69% 0.01 in
12:54 67.6 °F 56.2 °F 30.06 in North 2.0 mph 9.0 mph 67% 0.01 in
12:59 66.0 °F 54.3 °F 30.07 in North 5.0 mph 8.0 mph 66% 0.01 in
13:04 65.2 °F 54.4 °F 30.07 in North 3.0 mph 8.0 mph 68% 0.01 in
13:09 66.4 °F 54.7 °F 30.07 in North 3.0 mph 9.0 mph 66% 0.01 in
13:14 66.6 °F 55.3 °F 30.07 in North 4.0 mph 9.0 mph 67% 0.01 in
13:19 66.9 °F 54.7 °F 30.07 in North 4.0 mph 10.0 mph 65% 0.01 in
13:24 66.7 °F 53.7 °F 30.07 in NNW 4.0 mph 10.0 mph 63% 0.00 in
13:29 65.4 °F 52.9 °F 30.08 in NW 4.0 mph 9.0 mph 64% 0.00 in
13:34 66.6 °F 54.5 °F 30.08 in NW 4.0 mph 10.0 mph 65% 0.00 in
13:39 68.3 °F 56.1 °F 30.08 in NW 4.0 mph 10.0 mph 65% 0.00 in
13:44 67.7 °F 54.2 °F 30.07 in NW 3.0 mph 9.0 mph 62% 0.00 in
13:49 66.5 °F 53.1 °F 30.07 in NW 2.0 mph 7.0 mph 62% 0.00 in
13:54 67.3 °F 55.1 °F 30.07 in NNW 2.0 mph 6.0 mph 65% 0.00 in
13:59 68.1 °F 54.1 °F 30.07 in West 4.0 mph 8.0 mph 61% 0.00 in
14:04 69.1 °F 55.5 °F 30.07 in NW 5.0 mph 11.0 mph 62% 0.00 in
14:09 68.9 °F 54.4 °F 30.07 in NNW 8.0 mph 12.0 mph 60% 0.00 in
14:14 67.2 °F 51.4 °F 30.07 in North 4.0 mph 10.0 mph 57% 0.00 in
14:19 65.5 °F 51.7 °F 30.07 in NNW 5.0 mph 10.0 mph 61% 0.00 in
14:24 67.3 °F 52.5 °F 30.07 in NNW 4.0 mph 8.0 mph 59% 0.00 in
14:29 67.7 °F 52.9 °F 30.07 in North 4.0 mph 8.0 mph 59% 0.00 in
14:34 68.1 °F 52.8 °F 30.07 in North 4.0 mph 9.0 mph 58% 0.00 in
14:39 67.6 °F 53.2 °F 30.07 in NNW 5.0 mph 8.0 mph 60% 0.00 in
14:44 68.2 °F 53.3 °F 30.07 in NNW 4.0 mph 11.0 mph 59% 0.00 in
14:49 68.1 °F 50.8 °F 30.06 in NW 5.0 mph 11.0 mph 54% 0.00 in
14:54 68.5 °F 52.2 °F 30.06 in NNE 6.0 mph 10.0 mph 56% 0.00 in
14:59 67.7 °F 52.4 °F 30.06 in ENE 7.0 mph 8.0 mph 58% 0.00 in
15:04 68.1 °F 52.8 °F 30.06 in NW 3.0 mph 10.0 mph 58% 0.00 in
15:09 67.6 °F 51.8 °F 30.06 in NNW 1.0 mph 10.0 mph 57% 0.00 in
15:14 68.3 °F 52.9 °F 30.06 in NNW 4.0 mph 10.0 mph 58% 0.00 in
15:19 68.2 °F 54.2 °F 30.06 in NNW 4.0 mph 13.0 mph 61% 0.00 in
15:24 66.6 °F 50.9 °F 30.07 in NW 3.0 mph 7.0 mph 57% 0.00 in
15:29 65.6 °F 50.9 °F 30.07 in NNW 3.0 mph 11.0 mph 59% 0.00 in
15:34 65.5 °F 49.4 °F 30.06 in NNW 4.0 mph 11.0 mph 56% 0.00 in
15:39 66.1 °F 50.9 °F 30.07 in NNW 6.0 mph 14.0 mph 58% 0.00 in
15:44 67.2 °F 50.5 °F 30.07 in NW 5.0 mph 14.0 mph 55% 0.00 in
15:49 65.4 °F 47.8 °F 30.07 in NNW 5.0 mph 13.0 mph 53% 0.00 in
15:54 65.4 °F 49.8 °F 30.07 in NNW 4.0 mph 12.0 mph 57% 0.00 in
15:59 67.6 °F 50.4 °F 30.07 in NNW 3.0 mph 12.0 mph 54% 0.00 in
16:04 67.9 °F 49.6 °F 30.07 in NNW 3.0 mph 10.0 mph 52% 0.00 in
16:09 67.8 °F 49.5 °F 30.07 in North 2.0 mph 10.0 mph 52% 0.00 in
16:14 66.6 °F 48.4 °F 30.07 in NNW 5.0 mph 12.0 mph 52% 0.00 in
16:19 66.1 °F 47.4 °F 30.07 in NNW 5.0 mph 12.0 mph 51% 0.00 in
16:24 65.5 °F 47.4 °F 30.07 in North 6.0 mph 9.0 mph 52% 0.00 in
16:29 66.7 °F 48.5 °F 30.07 in NNW 5.0 mph 7.0 mph 52% 0.00 in
16:34 66.7 °F 47.5 °F 30.07 in NNW 3.0 mph 10.0 mph 50% 0.00 in
16:39 67.0 °F 48.8 °F 30.07 in North 6.0 mph 9.0 mph 52% 0.00 in
16:44 67.6 °F 51.3 °F 30.07 in WNW 1.0 mph 10.0 mph 56% 0.00 in
16:49 68.0 °F 51.2 °F 30.07 in NNW 3.0 mph 10.0 mph 55% 0.00 in
16:54 67.5 °F 49.8 °F 30.07 in North 3.0 mph 8.0 mph 53% 0.00 in
16:59 67.0 °F 49.3 °F 30.07 in NNE 4.0 mph 11.0 mph 53% 0.00 in
17:04 66.4 °F 48.2 °F 30.08 in North 5.0 mph 15.0 mph 52% 0.00 in
17:09 65.4 °F 48.3 °F 30.08 in NNW 5.0 mph 15.0 mph 54% 0.00 in
17:14 64.0 °F 47.5 °F 30.08 in NNW 5.0 mph 12.0 mph 55% 0.00 in
17:19 63.5 °F 47.5 °F 30.08 in NNW 3.0 mph 6.0 mph 56% 0.00 in
17:24 63.4 °F 48.4 °F 30.08 in NNW 1.0 mph 8.0 mph 58% 0.00 in
17:34 65.3 °F 49.7 °F 30.08 in NNW 1.0 mph 5.0 mph 57% 0.00 in
17:39 65.9 °F 49.3 °F 30.08 in WNW 4.0 mph 8.0 mph 55% 0.00 in
17:44 65.0 °F 48.4 °F 30.08 in WNW 5.0 mph 9.0 mph 55% 0.00 in
17:49 64.3 °F 47.8 °F 30.08 in NW 4.0 mph 9.0 mph 55% 0.00 in
17:54 64.5 °F 48.0 °F 30.08 in NW 4.0 mph 9.0 mph 55% 0.00 in
17:59 64.3 °F 48.7 °F 30.08 in NW 4.0 mph 9.0 mph 57% 0.00 in
18:04 64.3 °F 48.7 °F 30.08 in NNW 4.0 mph 9.0 mph 57% 0.00 in
18:09 64.1 °F 48.5 °F 30.08 in NNW 3.0 mph 11.0 mph 57% 0.00 in
18:14 63.7 °F 48.2 °F 30.08 in West 3.0 mph 10.0 mph 57% 0.00 in
18:19 63.2 °F 48.6 °F 30.08 in NNW 5.0 mph 12.0 mph 59% 0.00 in
18:24 63.7 °F 49.5 °F 30.08 in NW 4.0 mph 12.0 mph 60% 0.00 in
18:29 63.7 °F 49.1 °F 30.08 in NW 4.0 mph 10.0 mph 59% 0.00 in
18:34 63.3 °F 48.7 °F 30.08 in NNW 1.0 mph 9.0 mph 59% 0.00 in
18:39 63.2 °F 49.5 °F 30.08 in Calm   4.0 mph 61% 0.00 in
18:44 62.8 °F 49.1 °F 30.08 in North 3.0 mph 6.0 mph 61% 0.00 in
18:49 62.4 °F 49.2 °F 30.08 in NNW 2.0 mph 9.0 mph 62% 0.00 in
18:54 62.2 °F 49.0 °F 30.08 in Calm   6.0 mph 62% 0.00 in
18:59 62.1 °F 48.9 °F 30.08 in North 3.0 mph 6.0 mph 62% 0.00 in
19:04 62.2 °F 49.4 °F 30.08 in North 2.0 mph 8.0 mph 63% 0.00 in
19:09 62.2 °F 49.9 °F 30.08 in NNW 1.0 mph 4.0 mph 64% 0.00 in
19:14 62.0 °F 49.3 °F 30.08 in NNW 4.0 mph 6.0 mph 63% 0.00 in
19:19 61.9 °F 49.2 °F 30.09 in North 3.0 mph 8.0 mph 63% 0.00 in
19:24 61.6 °F 48.4 °F 30.09 in North 3.0 mph 13.0 mph 62% 0.00 in
19:29 61.4 °F 48.3 °F 30.09 in North 3.0 mph 13.0 mph 62% 0.00 in
19:34 61.3 °F 48.2 °F 30.09 in North 2.0 mph 11.0 mph 62% 0.00 in
19:39 60.8 °F 47.7 °F 30.09 in North 2.0 mph 7.0 mph 62% 0.00 in
19:44 60.4 °F 47.3 °F 30.09 in North 3.0 mph 8.0 mph 62% 0.00 in
19:49 60.1 °F 47.5 °F 30.09 in North 3.0 mph 8.0 mph 63% 0.00 in
19:54 59.9 °F 47.3 °F 30.09 in NNW 3.0 mph 7.0 mph 63% 0.00 in
19:59 59.6 °F 47.4 °F 30.10 in North 1.0 mph 5.0 mph 64% 0.00 in
20:04 59.4 °F 47.2 °F 30.10 in North 3.0 mph 7.0 mph 64% 0.00 in
20:09 59.1 °F 47.3 °F 30.10 in NNW 3.0 mph 7.0 mph 65% 0.00 in
20:14 59.0 °F 46.8 °F 30.10 in North 2.0 mph 9.0 mph 64% 0.00 in
20:19 58.7 °F 47.0 °F 30.10 in NW 2.0 mph 9.0 mph 65% 0.00 in
20:24 58.6 °F 46.9 °F 30.11 in North 2.0 mph 9.0 mph 65% 0.00 in
20:29 58.4 °F 46.7 °F 30.11 in North 2.0 mph 7.0 mph 65% 0.00 in
20:34 58.2 °F 46.9 °F 30.12 in North 1.0 mph 7.0 mph 66% 0.00 in
20:39 58.1 °F 46.8 °F 30.12 in NNW 1.0 mph 5.0 mph 66% 0.00 in
20:44 58.3 °F 47.0 °F 30.12 in North 3.0 mph 6.0 mph 66% 0.00 in
20:49 58.3 °F 47.0 °F 30.12 in NNW 3.0 mph 5.0 mph 66% 0.00 in
20:54 58.4 °F 47.1 °F 30.13 in NNW 2.0 mph 7.0 mph 66% 0.00 in
20:59 58.4 °F 46.7 °F 30.13 in NNW 2.0 mph 7.0 mph 65% 0.00 in
21:04 58.3 °F 46.6 °F 30.13 in NNW 2.0 mph 5.0 mph 65% 0.00 in
21:09 58.1 °F 46.8 °F 30.13 in NNW 3.0 mph 5.0 mph 66% 0.00 in
21:14 58.0 °F 46.7 °F 30.13 in NNW 4.0 mph 6.0 mph 66% 0.00 in
21:19 58.0 °F 46.3 °F 30.14 in North 2.0 mph 5.0 mph 65% 0.00 in
21:24 58.1 °F 46.4 °F 30.14 in NNW 2.0 mph 5.0 mph 65% 0.00 in
21:29 58.1 °F 46.0 °F 30.14 in North 1.0 mph 4.0 mph 64% 0.00 in
21:34 58.1 °F 46.4 °F 30.14 in North 3.0 mph 4.0 mph 65% 0.00 in
21:39 58.1 °F 46.0 °F 30.14 in NW 1.0 mph 4.0 mph 64% 0.00 in
21:44 58.0 °F 45.9 °F 30.14 in NW 1.0 mph 4.0 mph 64% 0.00 in
21:49 57.9 °F 45.4 °F 30.14 in NW 4.0 mph 7.0 mph 63% 0.00 in
21:54 57.7 °F 45.2 °F 30.15 in NNW 2.0 mph 7.0 mph 63% 0.00 in
21:59 57.3 °F 45.2 °F 30.15 in NNW 2.0 mph 6.0 mph 64% 0.00 in
22:04 57.1 °F 45.0 °F 30.15 in NNW 2.0 mph 7.0 mph 64% 0.00 in
22:09 56.9 °F 44.8 °F 30.15 in NW 2.0 mph 6.0 mph 64% 0.00 in
22:14 56.7 °F 44.7 °F 30.15 in Calm   6.0 mph 64% 0.00 in
22:19 56.5 °F 44.9 °F 30.15 in Calm   8.0 mph 65% 0.00 in
22:24 56.3 °F 44.7 °F 30.15 in North 2.0 mph 8.0 mph 65% 0.00 in
22:29 55.9 °F 44.7 °F 30.15 in NNW 2.0 mph 6.0 mph 66% 0.00 in
22:34 55.7 °F 44.5 °F 30.15 in North 3.0 mph 9.0 mph 66% 0.00 in
22:39 55.5 °F 44.3 °F 30.16 in NW 3.0 mph 5.0 mph 66% 0.00 in
22:44 55.2 °F 44.4 °F 30.16 in North 2.0 mph 5.0 mph 67% 0.00 in
22:49 55.1 °F 44.3 °F 30.15 in NNW 4.0 mph 6.0 mph 67% 0.00 in
22:54 54.9 °F 44.1 °F 30.15 in NNW 2.0 mph 6.0 mph 67% 0.00 in
22:59 54.7 °F 44.3 °F 30.15 in NNW 2.0 mph 5.0 mph 68% 0.00 in
23:04 54.6 °F 44.2 °F 30.16 in NNW 2.0 mph 5.0 mph 68% 0.00 in
23:09 54.4 °F 44.1 °F 30.16 in NNW 1.0 mph 5.0 mph 68% 0.00 in
23:14 54.1 °F 44.2 °F 30.16 in NNW 1.0 mph 4.0 mph 69% 0.00 in
23:24 53.6 °F 44.0 °F 30.16 in Calm   4.0 mph 70% 0.00 in
23:29 53.3 °F 44.1 °F 30.16 in NNW 1.0 mph 5.0 mph 71% 0.00 in
23:34 53.3 °F 43.8 °F 30.16 in NNW 1.0 mph 5.0 mph 70% 0.00 in
23:39 53.2 °F 44.0 °F 30.17 in NNW 3.0 mph 5.0 mph 71% 0.00 in
23:44 53.1 °F 43.9 °F 30.17 in NNW 2.0 mph 5.0 mph 71% 0.00 in
23:49 53.0 °F 43.8 °F 30.17 in Calm   4.0 mph 71% 0.00 in
23:54 52.7 °F 43.9 °F 30.17 in NNW 1.0 mph 4.0 mph 72% 0.00 in
23:59 52.6 °F 43.8 °F 30.17 in NNW 1.0 mph 5.0 mph 72% 0.00 in
Buffalo, New York, USA
Compliments of Weather Underground - 2.5 mb